Theta_e
352 359 366 366 367 366 365 363 362 361 361 362 360 361 363 363 363 361 361 362 362 360 358 355 355 356 356 356 356 356 357 355 354 352 351 351 350 349 350 351 353 345 349
354 358 365 365 366 366 364 363 362 361 361 361 360 361 363 363 363 361 360 360 360 358 357 355 355 355 355 355 355 354 354 352 352 351 351 350 351 350 348 349 351 347 349
352 359 363 365 365 365 363 362 361 360 361 361 360 362 363 363 362 361 360 360 359 357 356 355 355 355 355 354 354 353 352 351 351 350 353 348 345 350 348 347 348 349 348
354 358 361 365 365 365 363 362 361 361 361 361 361 362 362 363 361 360 360 359 358 356 356 355 355 355 357 357 356 355 354 355 357 358 352 351 344 351 350 348 346 346 346
350 357 363 363 364 364 363 361 361 361 361 360 361 362 362 361 360 360 359 359 358 356 356 356 357 358 357 354 355 354 352 355 357 353 350 348 343 349 352 350 349 347 346
346 357 363 363 362 363 363 362 362 361 360 360 362 361 361 360 360 360 359 358 358 357 357 356 356 355 353 354 353 352 354 356 356 345 349 343 347 354 354 351 350 349 348
348 356 361 363 363 363 363 362 361 360 360 360 362 361 360 360 360 359 358 357 357 356 356 355 354 352 353 352 353 354 354 356 348 342 346 349 347 354 355 353 352 351 351
351 353 359 362 363 362 362 361 360 360 360 361 361 361 360 360 360 358 357 356 356 355 355 355 353 352 352 353 353 354 354 354 346 342 343 346 352 356 357 355 354 354 353
349 350 356 358 361 362 362 361 360 359 360 360 360 360 360 360 359 358 357 357 356 356 355 354 353 353 353 352 353 353 353 353 345 341 341 345 355 358 357 356 356 357 356
345 346 348 355 356 358 358 361 360 360 359 359 359 359 359 359 359 358 356 356 357 356 355 354 353 352 352 351 352 352 353 353 344 338 338 346 356 358 356 356 356 357 358
344 344 344 344 348 348 353 357 359 359 359 358 359 358 356 351 353 353 351 355 356 355 355 354 354 353 353 353 352 352 354 343 336 335 339 350 350 351 350 351 353 355 358
343 343 344 344 345 344 343 352 351 350 350 351 351 354 350 349 351 351 351 355 355 355 354 354 354 354 353 343 341 352 346 340 335 333 334 351 351 352 352 353 354 355 356
346 345 346 349 350 346 345 346 346 346 346 347 349 352 350 346 353 351 351 348 349 351 345 348 347 345 339 338 339 343 343 341 336 336 345 352 353 354 354 354 355 357 357
346 346 347 352 353 357 349 346 349 346 347 346 347 353 350 351 358 354 350 349 345 345 343 345 343 343 344 343 345 343 341 339 338 342 349 353 352 354 356 356 358 358 359
347 347 348 353 354 363 352 350 351 351 350 351 352 355 353 352 355 353 352 349 346 348 347 347 347 346 349 347 347 346 342 346 349 347 346 355 353 354 357 358 359 360 360
351 351 351 353 358 361 367 357 358 359 356 357 355 356 357 359 360 353 354 352 348 349 346 346 344 346 347 348 349 351 350 350 352 351 350 352 353 353 356 358 355 352 360
355 355 358 358 360 365 364 369 366 365 356 359 360 362 358 360 360 354 354 350 348 347 350 349 349 348 347 348 349 350 351 352 351 353 354 353 352 352 354 353 349 352 357
356 359 361 355 360 363 368 367 366 362 363 360 360 363 360 360 360 362 355 353 350 351 349 345 346 343 343 345 346 349 350 354 352 354 353 352 351 354 352 352 351 340 345
364 362 362 365 356 361 366 365 366 366 364 363 364 364 363 361 360 359 357 353 357 350 348 348 345 346 347 351 350 349 353 352 352 349 352 351 350 349 353 348 343 344 345
361 362 362 364 366 359 361 365 365 360 362 364 364 361 361 359 358 358 355 354 359 350 347 345 343 345 347 348 349 350 353 353 351 349 346 346 343 345 347 346 342 340 342
356 351 357 359 365 363 361 354 353 354 356 360 359 360 356 357 356 357 355 354 353 351 349 349 347 347 344 347 347 346 347 348 349 347 346 346 343 344 344 342 336 341 344
356 357 356 356 360 359 360 360 358 353 355 354 356 357 356 355 357 356 355 352 353 350 351 347 352 346 344 346 343 339 334 335 341 344 339 338 337 342 344 347 346 342 344
346 354 358 359 359 361 361 362 363 361 359 358 353 353 351 351 355 356 356 355 352 352 350 348 347 344 341 345 345 339 329 324 330 339 338 337 336 340 339 340 345 344 343
341 345 353 359 361 360 361 357 358 352 350 353 357 355 358 353 351 353 349 351 348 347 346 346 344 346 344 339 343 343 340 338 329 326 334 335 337 337 334 335 337 341 342
341 344 349 355 359 362 361 362 357 352 354 355 358 358 359 358 357 354 352 349 346 346 344 342 345 343 343 341 338 339 340 339 337 331 326 329 332 333 333 332 333 334 338
336 341 348 352 355 358 359 360 358 358 356 351 352 348 351 352 350 345 350 350 346 346 346 348 348 348 344 345 343 342 341 337 333 331 328 328 329 330 334 335 334 334 335
Wind_Speed
17 18 17 16 17 17 17 17 16 15 15 14 14 13 12 13 13 13 13 12 12 12 11 12 11 10 10 11 11 11 10 9 7 8 8 8 9 7 7 7 11 9 9
21 18 17 17 18 18 18 17 16 16 15 14 14 13 12 13 13 12 12 11 11 11 11 11 10 9 9 9 9 8 7 5 3 4 5 5 8 7 6 7 12 8 7
21 16 16 18 18 18 18 17 16 16 16 15 14 13 12 12 12 11 11 10 11 11 10 10 10 8 7 7 7 6 4 3 3 1 5 6 7 8 6 6 6 6 4
20 14 15 16 18 18 18 17 17 16 16 15 14 14 13 11 11 10 9 9 10 10 10 9 8 6 5 5 5 4 4 6 9 8 6 10 8 11 8 5 4 2 1
17 16 15 17 18 17 17 17 16 16 15 15 15 14 13 11 10 10 9 8 9 9 9 8 6 5 4 4 4 4 7 9 11 12 11 2 6 10 9 6 5 4 2
19 18 16 17 19 18 18 17 16 16 16 16 14 14 13 12 10 10 8 7 8 9 8 6 5 4 2 3 4 6 9 11 12 10 8 5 8 12 10 6 3 4 3
19 17 16 17 18 18 18 16 16 16 15 15 15 13 12 11 10 9 7 6 6 7 6 6 4 2 1 2 4 5 8 12 10 12 2 6 9 13 11 8 5 4 4
20 16 15 16 17 17 16 16 15 15 15 15 14 13 12 10 9 9 8 7 6 5 6 6 5 3 2 3 5 6 8 10 11 11 11 3 13 13 11 9 7 6 6
20 16 13 14 14 15 14 14 14 13 13 13 13 12 11 10 9 9 8 7 7 6 6 5 5 4 4 5 6 8 9 10 8 8 12 1 13 13 11 9 8 8 8
18 17 14 13 14 12 11 13 13 14 14 14 13 13 12 11 9 8 8 8 7 7 7 6 5 5 6 7 9 11 11 11 9 11 10 3 12 11 10 8 9 9 10
16 15 15 15 13 12 11 11 11 11 10 10 10 10 9 7 8 10 10 12 10 8 8 7 7 8 8 10 13 15 13 5 10 8 5 11 11 10 9 7 8 9 10
19 17 15 13 12 12 11 11 9 10 7 7 8 8 6 7 8 10 10 12 10 9 9 9 10 10 9 7 7 15 6 9 9 8 3 14 11 10 9 8 8 10 10
19 14 17 12 12 12 10 7 5 6 6 6 8 9 8 7 6 4 6 6 5 9 6 9 7 6 9 7 8 5 8 10 6 3 6 14 13 11 10 9 10 10 10
18 16 17 14 11 7 10 8 8 7 7 7 8 9 6 5 4 5 6 8 7 6 8 6 6 9 10 9 6 6 6 5 4 3 4 11 13 12 11 11 11 11 10
15 14 16 15 9 5 11 8 6 7 8 9 9 10 7 5 4 4 3 4 7 6 7 5 6 5 6 6 7 7 8 6 5 3 3 13 15 13 14 13 10 8 9
14 12 14 15 10 6 3 8 5 5 8 7 8 9 10 5 4 5 5 5 5 4 5 6 5 6 5 6 7 7 6 6 7 6 6 5 12 14 12 6 6 8 11
13 13 11 14 11 5 4 1 2 2 4 4 4 8 10 7 5 5 2 3 3 5 6 2 3 2 3 4 6 7 6 6 6 6 4 4 4 11 11 10 9 12 12
12 12 11 11 14 9 5 3 2 3 3 3 4 4 11 8 7 2 4 5 6 5 4 4 3 4 6 7 8 7 5 6 6 3 4 4 4 2 6 14 2 13 27
9 10 8 5 12 13 6 4 4 4 3 3 2 3 2 4 4 3 4 6 6 4 3 3 4 5 5 4 5 5 4 4 3 4 5 5 5 6 3 6 5 9 18
10 7 7 3 4 9 8 5 3 4 3 2 1 2 3 4 5 6 6 7 6 3 3 4 5 4 5 4 6 5 3 3 3 2 3 5 5 6 5 6 7 8 12
9 7 5 8 5 4 4 6 6 6 5 3 3 3 5 5 5 5 5 5 6 4 4 6 5 5 4 4 4 4 5 7 7 4 4 3 4 4 6 7 3 3 6
13 14 12 9 6 5 5 5 4 4 5 6 5 5 6 5 6 5 5 6 6 4 6 8 6 4 6 7 5 4 4 4 3 6 3 3 6 5 6 5 7 8 9
9 8 12 12 10 6 5 2 2 1 2 2 5 7 10 11 9 9 6 5 6 6 6 8 10 11 10 9 9 5 4 4 3 2 6 6 6 5 5 5 6 8 9
10 10 7 7 10 10 8 5 3 3 5 4 3 2 3 5 3 2 5 6 6 4 7 8 7 11 11 9 7 4 6 4 4 8 4 4 5 6 7 5 6 6 6
13 12 11 9 7 3 6 4 5 7 5 6 1 2 2 6 5 1 6 8 5 4 4 7 8 9 7 4 6 5 5 3 6 8 11 8 3 4 6 8 7 7 7
14 14 13 12 7 6 2 6 4 3 5 5 4 3 3 6 6 8 6 6 8 6 6 5 5 7 6 6 5 6 6 6 5 8 9 9 10 7 14 8 8 8 9
Wind_Direction
126 127 125 128 130 129 128 129 128 126 123 119 117 114 109 103 100 101 100 97 100 101 98 96 93 85 78 73 69 68 66 64 73 86 93 101 95 78 49 18 333 93 86
126 129 128 130 134 134 130 132 131 131 127 122 123 120 118 112 109 108 106 105 105 106 106 106 101 90 82 80 76 69 63 61 74 122 130 125 119 101 69 39 45 77 83
126 127 129 133 136 136 133 134 133 135 129 128 127 127 122 114 112 111 111 111 112 110 109 104 99 96 88 81 74 67 40 346 319 249 213 209 138 125 104 71 60 74 82
124 138 134 135 133 135 136 134 136 136 132 131 132 132 124 119 120 116 113 114 113 111 109 110 108 99 91 79 65 46 353 317 312 301 262 228 144 142 136 131 124 122 110
133 128 129 134 130 135 133 134 138 135 134 136 137 134 127 125 127 123 121 124 121 118 120 120 110 96 77 63 42 7 330 324 323 307 274 199 129 147 149 155 163 178 144
142 126 135 135 142 137 136 139 139 138 139 139 139 135 133 136 135 128 134 139 131 127 122 114 105 93 62 21 4 340 326 322 316 291 275 103 120 155 150 161 184 157 179
131 129 138 133 136 140 141 142 141 142 142 143 141 139 138 137 131 129 134 137 132 132 131 128 134 137 61 334 318 318 316 316 307 296 308 173 126 157 153 169 191 211 218
123 137 139 135 138 140 143 145 146 146 145 144 143 142 140 139 138 140 147 148 144 151 163 167 160 170 228 271 285 291 296 306 312 307 305 122 148 157 157 170 200 223 231
126 132 140 140 138 135 142 145 145 145 146 144 143 143 144 150 154 152 154 161 166 177 176 179 190 205 236 258 265 270 275 282 288 285 289 110 149 158 161 178 202 228 231
140 140 146 145 149 151 154 150 153 153 153 150 150 154 156 160 163 162 167 182 179 184 192 193 207 220 240 256 264 258 254 266 263 260 265 169 149 154 168 192 213 228 234
145 149 154 157 156 159 157 161 151 150 147 148 152 155 156 184 178 172 199 177 185 196 202 203 213 224 237 248 249 250 252 250 257 250 216 150 161 163 167 203 232 242 243
146 159 152 161 162 164 159 146 163 162 168 178 179 174 204 218 179 191 163 168 183 200 215 214 220 225 236 248 248 232 232 240 248 250 176 164 171 170 175 205 239 248 244
151 162 155 161 163 168 144 152 166 161 172 187 189 174 225 226 189 203 150 179 185 204 216 211 217 232 230 237 247 187 220 239 244 268 138 172 182 179 187 204 232 249 247
150 160 150 151 166 172 134 163 173 168 176 181 189 179 211 245 205 188 177 196 191 183 215 188 211 216 219 234 264 286 287 289 274 290 123 178 195 192 194 210 223 237 251
150 158 156 146 166 187 141 168 194 181 179 188 179 179 206 236 236 182 253 239 187 181 201 213 215 234 213 219 237 237 241 245 299 304 274 201 210 199 203 198 227 259 261
148 151 150 150 157 205 187 172 209 183 182 177 175 179 198 219 247 195 212 223 225 207 225 193 201 222 209 237 253 232 231 243 241 238 254 220 205 210 208 188 211 254 277
147 149 148 142 148 181 226 281 177 190 215 178 201 179 183 214 248 218 244 284 265 236 233 281 274 303 273 291 272 266 260 243 248 258 255 266 215 224 168 195 217 238 251
140 146 148 167 158 172 188 202 215 243 198 252 194 180 182 191 220 189 264 258 239 238 195 199 234 235 237 224 238 236 241 218 249 277 304 296 268 128 178 216 134 53 303
117 129 149 150 156 165 189 199 207 246 249 229 176 58 117 193 199 221 255 261 263 229 224 228 220 226 240 247 275 268 248 242 267 290 311 306 322 312 144 224 145 195 244
108 103 139 179 204 161 172 202 220 220 223 235 52 181 212 213 215 223 240 282 312 242 266 269 246 249 245 250 262 309 312 298 269 288 287 295 289 285 151 176 179 209 207
132 140 177 190 218 166 187 180 211 215 189 193 243 235 232 240 239 245 247 244 264 261 251 260 238 227 275 286 299 275 268 260 247 229 231 242 298 303 277 196 146 118 308
157 164 174 181 180 199 204 216 195 217 204 191 190 209 219 231 218 254 234 263 272 240 254 261 259 246 239 224 231 272 279 298 262 224 224 255 250 243 245 195 180 184 197
150 166 172 171 179 195 237 252 238 328 341 258 203 213 208 213 210 209 238 244 275 316 307 282 272 249 267 278 262 235 290 237 340 117 233 227 232 244 256 247 208 201 214
160 161 164 164 165 178 200 221 256 269 261 268 260 98 92 60 40 41 262 314 340 327 289 315 308 313 273 295 317 298 278 283 288 295 263 255 242 248 264 271 259 237 241
171 160 155 156 151 173 166 229 189 221 246 267 217 81 8 71 46 164 254 265 258 229 278 309 295 279 273 273 286 290 264 265 263 261 280 277 270 259 274 253 245 249 237
169 165 156 138 140 143 222 173 199 313 303 324 7 24 20 58 61 22 36 21 47 356 11 343 343 342 323 306 301 308 290 280 281 278 270 281 276 265 256 237 226 240 240